Portada
METAR-TAF:

METAR-TAF

Aeroports :

Chlef, Algèria

latitud: 36-13N, longitud: 001-20E, altitud: 143 m

Observació

L'informe es va fer fa 37 minuts, a les 07:00 UTC
Vent calma
Temperatura 22°C
Humitat 60%
Pressió 1019 hPa
Visibilitat 10 km o més
sense núvols per sota de 1500 mi sense presència de cumulonimbus.

METAR: DAOI 250700Z 00000KT CAVOK 22/14 Q1019

Hora: 08:37 (07:37 UTC)

Pronòstic

L'informe es va fer fa 2 hores i 37 minuts, a les 05:00 UTC
Pronòstic vàlid del 25 a les 06 UTC al 26 a les 06 UTC
Vent 2 kt amb direcció variable
Evolucionant progressivament
l' 25 a les 12 UTC al 25 a les 14 UTC
Vent 12 kt del Nord-Est

TAF: DAOI 250500Z 2506/2606 VRB02KT BECMG 2512/2514 04012KT

Observacions i pronòstics meteorològics de més de 4000 aeroports (METAR i TAF).

Les estacions disponibles són els punts grocs i vermells al mapa.

Posi el ratolí al punt desitjat per veure el nom de l'estació.

Feu clic per veure les observacions i els pronòstics meteorològics.

Per canviar el mapa: feu clic els botons verds amb una creu de color negre per apropar; al botó verd amb un guió per allunyar la imatge; o en les fletxes verdes per a mapes adjacents.


METAR-TAF: